Flag for U.S.A. Weather past 2 weeks in Vista, California, U.S.A.

Now
68 °F

Overcast.


Feels Like: 68 °F
Forecast: 61 / 72 °F
Wind: 3 mph from South

Location: McClellan-Palomar Airport

Current Time: Sep 4, 2015 at 3:29:25 AM

Latest Report: Sep 4, 2015 at 2:53 AM


Visibility: 10 mi

Pressure: 29.85 "Hg

Humidity: 73%

Dew point: 59 °F

Location of VistaLocation

Historic Weather in Vista — Graph

°F

Vista temperature yesterday

Maximum temperature yesterday: 73 °F (at 11:53 AM)
Minimum temperature yesterday: 66 °F (at 1:53 AM)
Average temperature yesterday: 69 °F

Past Weeks' High & Low Weather Summary

 TemperatureHumidityPressure
High86 °F (Aug 28, 9:53 AM)100% (Aug 29, 4:53 AM)29.98 "Hg (Aug 29, 4:53 AM)
Low66 °F (Sep 3, 1:53 AM)37% (Aug 28, 4:53 PM)29.81 "Hg (Aug 28, 4:53 PM)
Average72 °F76%29.90 "Hg
* Reported Aug 20 1:53 AM — Sep 4 1:53 AM, Vista, Weather by CustomWeather, © 2015

Note: Actual official high and low records may vary slightly from our data, if they occured in-between our weather recording intervals... More about our weather records

Advertising

Vista weather history for previous 24 hours

 ConditionsComfort  
Time TempWeatherWind HumidityBarometerVisibility
1:53 AM
Fri, Sep 4
68 °FOvercast.5 mph73%29.85 "Hg10 mi
12:53 AM68 °FOvercast.3 mph73%29.85 "Hg10 mi
11:53 PM
Thu, Sep 3
68 °FOvercast.5 mph73%29.86 "Hg10 mi
10:53 PM68 °FPassing clouds.3 mph73%29.86 "Hg10 mi
9:53 PM68 °FClear.3 mph73%29.86 "Hg10 mi
8:53 PM68 °FClear.5 mph73%29.85 "Hg10 mi
7:53 PM69 °FSunny.3 mph70%29.83 "Hg10 mi
6:53 PM69 °FSunny.7 mph68%29.83 "Hg10 mi
5:53 PM70 °FSunny.9 mph66%29.82 "Hg10 mi
4:53 PM71 °FSunny.10 mph63%29.83 "Hg10 mi
3:53 PM72 °FSunny.7 mph61%29.83 "Hg10 mi
2:53 PM72 °FSunny.9 mph61%29.85 "Hg10 mi
1:53 PM72 °FSunny.12 mph64%29.87 "Hg10 mi
12:53 PM72 °FSunny.9 mph64%29.89 "Hg10 mi
11:53 AM73 °FSunny.10 mph62%29.91 "Hg10 mi
11:04 AM71 °FScattered clouds.7 mph68%29.93 "Hg10 mi
10:53 AM71 °FPartly sunny.7 mph68%29.92 "Hg10 mi
9:53 AM71 °FPassing clouds.3 mph66%29.92 "Hg10 mi
8:53 AM69 °FOvercast.6 mph73%29.92 "Hg10 mi
7:53 AM68 °FOvercast.3 mph76%29.92 "Hg10 mi
6:53 AM67 °FOvercast.No wind76%29.91 "Hg10 mi
5:53 AM67 °FOvercast.No wind79%29.90 "Hg10 mi
4:53 AM67 °FOvercast.3 mph76%29.89 "Hg10 mi
3:53 AM66 °FOvercast.3 mph78%29.90 "Hg10 mi
Weather by CustomWeather, © 2015

See weather overviewHow to use our weather pages